When you browse on this site, cookies collect data to enhance your experience and personalize the content and advertising you see.
Visit our Privacy Policy to learn more. By continuing to use the site, you agree to this use of cookies and data.
  • In Austria
  • List of Countries
  • For 7 days
  • Water Temperature
  • Weather Map
  • News
  • Weather Widgets
  • user-avatar
    Login

    Hourly Weather Giumri

    Today, 31 May, Sunday

    Time Temperature Precipitation Wind Pressure Humidity
    00:00 +12°C° 0 mm 1 mps 634 mmHg 55%
    01:00 +11°C° 0 mm 1 mps 633 mmHg 56%
    02:00 +10°C° 0 mm 1 mps 633 mmHg 58%
    03:00 +10°C° 0 mm 1 mps 633 mmHg 60%
    04:00 +10°C° 0 mm 1 mps 634 mmHg 63%
    05:00 +11°C° 0 mm 1 mps 634 mmHg 66%
    06:00 +11°C° 0 mm 1 mps 635 mmHg 69%
    07:00 +13°C° 0 mm 1 mps 635 mmHg 63%
    08:00 +15°C° 0 mm 1 mps 635 mmHg 57%
    09:00 +18°C° 0 mm 1 mps 636 mmHg 51%
    10:00 +19°C° 0 mm 1 mps 636 mmHg 46%
    11:00 +20°C° 0 mm 1 mps 636 mmHg 41%
    12:00 +20°C° 0 mm 2 mps 636 mmHg 36%
    13:00 +21°C° 0 mm 2 mps 636 mmHg 35%
    14:00 +21°C° 0 mm 2 mps 636 mmHg 35%
    15:00 +23°C° 0 mm 2 mps 636 mmHg 34%
    16:00 +21°C° 0 mm 2 mps 635 mmHg 41%
    17:00 +21°C° 0 mm 2 mps 635 mmHg 47%
    18:00 +20°C° 0 mm 2 mps 635 mmHg 53%
    19:00 +18°C° 0 mm 2 mps 634 mmHg 60%
    20:00 +15°C° 0 mm 2 mps 634 mmHg 67%
    21:00 +13°C° 0 mm 2 mps 633 mmHg 74%
    22:00 +12°C° 0 mm 2 mps 633 mmHg 75%
    23:00 +12°C° 0 mm 2 mps 633 mmHg 77%

    Tomorrow, 1 June, Monday

    Time Temperature Precipitation Wind Pressure Humidity
    00:00 +12°C° 0 mm 2 mps 632 mmHg 78%
    01:00 +11°C° 0 mm 1 mps 632 mmHg 77%
    02:00 +11°C° 0 mm 1 mps 632 mmHg 75%
    03:00 +11°C° 0 mm 1 mps 632 mmHg 74%
    04:00 +12°C° 0 mm 1 mps 632 mmHg 73%
    05:00 +12°C° 0 mm 1 mps 632 mmHg 73%
    06:00 +13°C° 0 mm 1 mps 633 mmHg 72%
    07:00 +15°C° 0 mm 1 mps 633 mmHg 63%
    08:00 +18°C° 0 mm 1 mps 634 mmHg 54%
    09:00 +19°C° 0 mm 2 mps 634 mmHg 46%
    10:00 +20°C° 0 mm 3 mps 634 mmHg 43%
    11:00 +21°C° 0 mm 4 mps 635 mmHg 39%
    12:00 +22°C° 0 mm 6 mps 635 mmHg 36%
    13:00 +22°C° 0 mm 6 mps 634 mmHg 36%
    14:00 +23°C° 0 mm 6 mps 634 mmHg 36%
    15:00 +23°C° 0 mm 7 mps 634 mmHg 36%
    16:00 +22°C° 0 mm 6 mps 633 mmHg 42%
    17:00 +21°C° 0 mm 5 mps 633 mmHg 48%
    18:00 +20°C° 0 mm 4 mps 633 mmHg 54%
    19:00 +18°C° 0 mm 3 mps 632 mmHg 55%
    20:00 +16°C° 0 mm 3 mps 632 mmHg 56%
    21:00 +14°C° 0 mm 2 mps 632 mmHg 56%
    22:00 +13°C° 0 mm 2 mps 631 mmHg 56%
    23:00 +13°C° 0 mm 1 mps 631 mmHg 57%

    Day after tomorrow, 2 June, Tuesday

    Time Temperature Precipitation Wind Pressure Humidity
    00:00 +12°C° 0 mm 1 mps 631 mmHg 57%
    01:00 +12°C° 0 mm 1 mps 631 mmHg 58%
    02:00 +12°C° 0 mm 1 mps 630 mmHg 59%
    03:00 +12°C° 0 mm 1 mps 630 mmHg 59%
    04:00 +12°C° 0 mm 1 mps 630 mmHg 61%
    05:00 +13°C° 0 mm 1 mps 631 mmHg 63%
    06:00 +14°C° 0 mm 1 mps 631 mmHg 64%
    07:00 +16°C° 0 mm 2 mps 631 mmHg 58%
    08:00 +18°C° 0 mm 3 mps 632 mmHg 52%
    09:00 +20°C° 0 mm 3 mps 632 mmHg 46%
    10:00 +21°C° 0 mm 5 mps 632 mmHg 43%
    11:00 +22°C° 0 mm 6 mps 633 mmHg 40%
    12:00 +23°C° 0 mm 8 mps 633 mmHg 37%
    13:00 +24°C° 0 mm 8 mps 633 mmHg 37%
    14:00 +24°C° 0 mm 8 mps 632 mmHg 37%
    15:00 +24°C° 0 mm 8 mps 632 mmHg 37%
    16:00 +23°C° 0 mm 7 mps 632 mmHg 41%
    17:00 +22°C° 0 mm 6 mps 632 mmHg 45%
    18:00 +20°C° 0 mm 4 mps 632 mmHg 49%
    19:00 +18°C° 0 mm 3 mps 631 mmHg 48%
    20:00 +16°C° 0 mm 2 mps 631 mmHg 48%
    21:00 +13°C° 0 mm 2 mps 631 mmHg 47%
    22:00 +13°C° 0 mm 1 mps 631 mmHg 50%
    23:00 +12°C° 0 mm 1 mps 630 mmHg 52%

    3 June, Wednesday

    Time Temperature Precipitation Wind Pressure Humidity
    00:00 +11°C° 0 mm 1 mps 630 mmHg 54%
    01:00 +11°C° 0 mm 1 mps 630 mmHg 55%
    02:00 +11°C° 0 mm 1 mps 630 mmHg 55%
    03:00 +11°C° 0 mm 1 mps 630 mmHg 56%
    04:00 +11°C° 0 mm 1 mps 630 mmHg 58%
    05:00 +12°C° 0 mm 1 mps 631 mmHg 60%
    06:00 +13°C° 0 mm 1 mps 631 mmHg 62%
    07:00 +15°C° 0 mm 1 mps 631 mmHg 58%
    08:00 +18°C° 0 mm 1 mps 632 mmHg 53%
    09:00 +19°C° 0 mm 2 mps 632 mmHg 49%
    10:00 +19°C° 0 mm 2 mps 633 mmHg 48%
    11:00 +20°C° 0 mm 3 mps 633 mmHg 48%
    12:00 +21°C° 0 mm 4 mps 633 mmHg 47%
    13:00 +21°C° 0.3 mm 3 mps 633 mmHg 50%
    14:00 +21°C° 0.3 mm 3 mps 633 mmHg 52%
    15:00 +21°C° 0.3 mm 3 mps 632 mmHg 54%
    16:00 +20°C° 0.9 mm 3 mps 632 mmHg 61%
    17:00 +18°C° 0.9 mm 2 mps 632 mmHg 68%
    18:00 +17°C° 0.9 mm 2 mps 631 mmHg 75%
    19:00 +16°C° 0.1 mm 2 mps 631 mmHg 77%
    20:00 +14°C° 0.1 mm 2 mps 631 mmHg 80%
    21:00 +13°C° 0.1 mm 1 mps 630 mmHg 83%
    22:00 +12°C° 0.1 mm 1 mps 630 mmHg 83%
    23:00 +12°C° 0.1 mm 1 mps 631 mmHg 83%

    4 June, Thursday

    Time Temperature Precipitation Wind Pressure Humidity
    00:00 +12°C° 0.1 mm 1 mps 631 mmHg 82%
    01:00 +11°C° 0 mm 1 mps 631 mmHg 82%
    02:00 +11°C° 0 mm 1 mps 631 mmHg 82%
    03:00 +10°C° 0 mm 1 mps 631 mmHg 82%
    04:00 +11°C° 0 mm 1 mps 631 mmHg 81%
    05:00 +12°C° 0 mm 1 mps 632 mmHg 80%
    06:00 +12°C° 0 mm 1 mps 632 mmHg 79%
    07:00 +14°C° 0 mm 1 mps 633 mmHg 72%
    08:00 +15°C° 0 mm 2 mps 633 mmHg 66%
    09:00 +17°C° 0 mm 2 mps 634 mmHg 59%
    10:00 +18°C° 0 mm 2 mps 634 mmHg 55%
    11:00 +20°C° 0 mm 2 mps 634 mmHg 50%
    12:00 +21°C° 0 mm 2 mps 635 mmHg 46%
    13:00 +21°C° 0 mm 2 mps 635 mmHg 43%
    14:00 +23°C° 0 mm 2 mps 635 mmHg 41%
    15:00 +24°C° 0 mm 2 mps 635 mmHg 39%
    16:00 +23°C° 0 mm 2 mps 635 mmHg 43%
    17:00 +23°C° 0 mm 2 mps 635 mmHg 47%
    18:00 +22°C° 0 mm 1 mps 634 mmHg 50%
    19:00 +20°C° 0 mm 1 mps 634 mmHg 55%
    20:00 +16°C° 0 mm 2 mps 633 mmHg 60%
    21:00 +14°C° 0 mm 2 mps 633 mmHg 65%
    22:00 +13°C° 0 mm 2 mps 633 mmHg 67%
    23:00 +13°C° 0 mm 2 mps 633 mmHg 69%

    5 June, Friday

    Time Temperature Precipitation Wind Pressure Humidity
    00:00 +12°C° 0 mm 1 mps 633 mmHg 72%
    01:00 +12°C° 0 mm 1 mps 633 mmHg 72%
    02:00 +11°C° 0 mm 1 mps 633 mmHg 72%
    03:00 +11°C° 0 mm 1 mps 632 mmHg 72%
    04:00 +12°C° 0 mm 1 mps 633 mmHg 72%
    05:00 +12°C° 0 mm 1 mps 634 mmHg 72%
    06:00 +13°C° 0 mm 1 mps 634 mmHg 72%
    07:00 +15°C° 0 mm 1 mps 635 mmHg 65%
    08:00 +18°C° 0 mm 1 mps 635 mmHg 59%
    09:00 +20°C° 0 mm 1 mps 636 mmHg 52%
    10:00 +21°C° 0 mm 2 mps 636 mmHg 46%
    11:00 +22°C° 0 mm 3 mps 636 mmHg 41%
    12:00 +24°C° 0 mm 3 mps 637 mmHg 35%
    13:00 +23°C° 0 mm 4 mps 637 mmHg 35%
    14:00 +25°C° 0 mm 4 mps 636 mmHg 34%
    15:00 +25°C° 0 mm 5 mps 636 mmHg 34%
    16:00 +23°C° 0 mm 4 mps 636 mmHg 40%
    17:00 +22°C° 0 mm 4 mps 636 mmHg 46%
    18:00 +21°C° 0 mm 3 mps 635 mmHg 52%
    19:00 +19°C° 0 mm 2 mps 635 mmHg 55%
    20:00 +16°C° 0 mm 2 mps 635 mmHg 59%
    21:00 +14°C° 0 mm 1 mps 634 mmHg 62%
    22:00 +13°C° 0 mm 1 mps 634 mmHg 66%
    23:00 +13°C° 0 mm 1 mps 634 mmHg 69%
    Show more